Regional Weather Roundup
Issued by NWS

Home | Current Version | Previous Version | Text Only | Print | Product List | Glossary On
Versions: 1 2 3 4 5 6 7 8 9 10 11 12 13 14 15 16 17 18 19 20 21 22 23 24 25 26 27 28 29 30 31 32 33 34 35 36 37 38 39 40 41 42 43 44 45 46 47 48 49 50
000
ASUS46 KLOX 011212
RWRCA

SOUTHERN CALIFORNIA WEATHER ROUNDUP
NATIONAL WEATHER SERVICE OXNARD CALIFORNIA
500 AM PDT WED OCT 01 2014

NOTE: "FAIR" INDICATES FEW OR NO CLOUDS BELOW 12,000 FEET WITH NO
SIGNIFICANT WEATHER AND/OR OBSTRUCTIONS TO VISIBILITY.

  -  STATIONS PRECEEDED BY AN ASTERISK (*) ARE NOT NWS OR FAA
     STATIONS AND ARE NOT SUBJECT TO NWS AND FAA QUALITY CONTROL.

CAZ041-042-087-011300-
LA AND ORANGE COUNTY COASTAL AREAS


CITY           SKY/WX    TMP DP  RH WIND       PRES   REMARKS
L.A. DOWNTOWN  PTCLDY    66  62  87 VRB3      29.77R FOG
L.A. AIRPORT   PTCLDY    63  61  93 E5        29.78R
LONG BEACH     PTCLDY    65  62  90 CALM      29.77R

CITY           SKY/WX    TMP DP  RH WIND       PRES   REMARKS
AVALON           N/A     64 N/A N/A MISG        N/A
FULLERTON      MOCLDY    67  62  84 E3        29.77R
*GETTY CENTER    N/A     61  59  94 NE3         N/A
HAWTHORNE      MOCLDY    66  62  87 E6        29.78R
*LEO CARRILLO    N/A     59  49  70 NE6         N/A
*LOS ALAMITOS  MOCLDY    65  62  92 NE3       29.78R
*REDONDO BEACH   N/A     60  56  85 CALM      29.77R
SANTA ANA      MOCLDY    68  61  77 CALM      29.78R
STA MONICA APT PTCLDY    63  58  83 CALM      29.78R
*STA MON PIER    N/A     64  60  87 N1        29.77R
*UCLA            N/A     63  57  82 CALM      29.76R

$$

CAZ547-548-048-011300-
LA COUNTY VALLEYS AND INLAND EMPIRE


CITY           SKY/WX    TMP DP  RH WIND       PRES   REMARKS
BURBANK        CLEAR     63  53  70 E3        29.78R
VAN NUYS       CLEAR     63  54  72 CALM      29.79R

CITY           SKY/WX    TMP DP  RH WIND       PRES   REMARKS
CORONA AIRPORT SUNNY     52  49  89 CALM      29.79R
*CHATSWORTH      N/A     61  53  73 CALM      29.75S
CHINO          CLEAR     58  55  90 CALM      29.80R FOG
*CLAREMONT       N/A     60  42  51 CALM        N/A
MARCH AFB      CLEAR     55  47  74 CALM      29.81R
*NORTHRIDGE      N/A     63  52  67 CALM        N/A
ONTARIO        CLEAR     63  56  78 CALM      29.79R
*PASADENA        N/A     63  55  77 CALM        N/A
RIVERSIDE      CLEAR     61  54  77 NE3       29.79R
SAN BERNARDINO NOT AVBL
*SAN GABRIEL     N/A     62  55  79 CALM      29.74R
*SAN RAFAEL HI   N/A     64  57  78 SW6         N/A
*SAUGUS          N/A     60  40  48 NE2         N/A
*WHITEMAN AP   NOT AVBL
*WOODLAND HILL   N/A     57  50  77 SE2         N/A

$$

CAZ054-055-011300-
LA AND SAN BERNARDINO COUNTY MOUNTAINS


CITY           SKY/WX    TMP DP  RH WIND       PRES   REMARKS
*ACTON           N/A     52  37  57 N6          N/A
*BIG BEAR AIRP SUNNY     32  23  69 S5        30.03R WCI  27
*BIG PINES       N/A     49  20  32 CALM        N/A
*CHILAO          N/A     58  34  40 N2          N/A
MT WILSON NWS    N/A     54  36  50 MISG        N/A
SANDBERG       CLEAR     56  44  64 N10G25    29.94R
*WARM SPRINGS    N/A     57  43  59 W12         N/A

$$

CAZ028-029-059-060-099-011300-
ANTELOPE VALLEY AND SURROUNDING AREAS


CITY           SKY/WX    TMP DP  RH WIND       PRES   REMARKS
LANCASTER      CLEAR     61  47  59 W14       29.84R
PALMDALE       CLEAR     59  43  55 SW7       29.86R

CITY           SKY/WX    TMP DP  RH WIND       PRES   REMARKS
29 PALMS       CLEAR     65  39  38 W12       29.86R
BARSTOW/DAGGET CLEAR     62  38  40 VRB3      29.82R
BISHOP         PTCLDY    57  34  41 N17G25    29.99R
CHINA LAKE     CLEAR     57  34  41 S5        29.82R
EDWARDS AFB    CLEAR     60  46  60 SW8       29.82R
MOJAVE         FAIR      64  45  48 W6        29.84R
NEEDLES        CLEAR     69  38  32 N6        29.74R
VICTORVILLE    CLEAR     59  41  51 SW7       29.86S

$$

CAZ039-040-011300-
VENTURA AND SANTA BARBARA COUNTY COAST


CITY           SKY/WX    TMP DP  RH WIND       PRES   REMARKS
CAMARILLO      CLEAR     57  51  80 CALM      29.76R
NWS OXNARD       N/A     56  52  85 NW3       29.76R
OXNARD AIRPORT CLEAR     57  52  83 E5        29.76R
*POINT MUGU    LGT RAIN  60  56  86 N5        29.77R
SBA APT/GOLETA CLEAR     59  54  83 NE3       29.75R
*VENTURA         N/A     58  51  79 CALM      29.81R

$$

CAZ044-045-011300-
VENTURA COUNTY VALLEYS


CITY           SKY/WX    TMP DP  RH WIND       PRES   REMARKS
*SIMI VALLEY     N/A     61  50  68 NE3       29.72S
*OJAI            N/A     49  44  83 CALM      29.72R
*FILLMORE        N/A     52  47  83 CALM      29.68R

$$

CAZ053-011300-
VENTURA COUNTY MOUNTAINS


CITY           SKY/WX    TMP DP  RH WIND       PRES   REMARKS
*LOCKWOOD VLY    N/A     36  27  69 MISG        N/A
*ROSE VALLEY     N/A     37  34  87 MISG        N/A

$$

CAZ034-035-036-011300-
CENTRAL COAST AND SANTA YNEZ VALLEY


CITY           SKY/WX    TMP DP  RH WIND       PRES   REMARKS
SAN LUIS OBISP CLEAR     68  50  52 NW10G21   29.79R
SANTA MARIA    PTCLDY    54  50  86 CALM      29.79R

CITY           SKY/WX    TMP DP  RH WIND       PRES   REMARKS
*CAL POLY SLO    N/A     66  52  59 SW8         N/A
*LOMPOC        CLOUDY    55  52  88 E5        29.79S
*PISMO BEACH     N/A     64  53  68 NE8       29.79R
*SANTA YNEZ    FOG       52  52 100 CALM      29.79R VSB 1/2

$$

CAZ037-038-051-011300-
SAN LUIS OBISPO COUNTY INTERIOR AND CUYAMA VALLEY


CITY           SKY/WX    TMP DP  RH WIND       PRES   REMARKS
*CUYAMA          N/A     54  46  74 NE3       29.80S
PASO ROBLES    CLEAR     53  47  79 NE3       29.85R

$$

CAZ032-033-061-011300-
SOUTHERN DESERTS


CITY           SKY/WX    TMP DP  RH WIND       PRES   REMARKS
BLYTHE         CLEAR     66  45  46 NE3       29.69S
IMPERIAL       CLEAR     67  46  47 SW5       29.67S
PALM SPRINGS   CLEAR     74  47  38 NW3       29.72R
THERMAL        CLEAR     68  47  46 N5        29.66R

$$

ELSEWHERE ACROSS THE WESTERN UNITED STATES AND MEXICO


CITY           SKY/WX    TMP DP  RH WIND       PRES   REMARKS
DENVER, CO     MOCLDY    43  37  79 S8        29.88R
GRAND CANYON,  PTCLDY    34  32  92 CALM      30.03R
HONOLULU, HI   PTCLDY    79  72  78 N3        29.93F
KAHULUI, MAUI  CLEAR     72  66  83 SE6       29.94F
LAKE TAHOE, CA CLEAR     42  28  57 VRB5      30.12R
LAS VEGAS, NV  CLEAR     68  39  34 S6        29.77R
MAMMOTH LAKES, FAIR      39  32  75 W7        30.14R WCI  34
MEXICO CITY, M PTCLDY    59  54  82 CALM      30.20S
PHOENIX, AZ    CLEAR     69  51  52 E7        29.76R
PORTLAND, OR   MOCLDY    49  48  97 SW3       30.22S
RENO, NV       CLEAR     44  34  67 S3        30.13R
SALT LAKE CITY MOCLDY    48  38  68 CALM      29.99R
SAN DIEGO, CA  MOCLDY    68  63  83 S8        29.79S
SAN FRANCISCO, CLEAR     61  53  75 CALM      29.86R
SAN JOSE, CA   CLEAR     56  52  86 CALM      29.86R
SEATTLE, WA    MOCLDY    52  49  89 SE5       30.20S
TIJUANA, MEX   CLOUDY    63  59  88 CALM      29.81S FOG

$$

STATION/POSITION TIME  TEMP    WIND        PRES    VSBY  WAVE
                       AIR SEA DIR/SP/G                  HT/PER
                 (UTC) (F)     (DEG/KT/KT) (MB)    (MI)  (FT/S)
POINT ARGUELLO B NOT AVBL
WEST SANTA BARBA 1200   61 61  330/ 12/ 16 1006.5R         8/ 8
POINT CONCEPTION NOT AVBL
EAST SANTA BARBA 1200   64 66  200/ 10/ 12 1007.5
SANTA MONICA BAY 1200   67 69   80/ 12/ 14 1007.3R         3/ 6


USA.gov is the U.S. government's official web portal to all federal, state and local government web resources and services.